[ ตารางข้อมูล ] [ Min-Max ] [ วันนี้4 ] [ วันนี้2 ] [ เทียบ3วัน A ] [ เทียบ4วัน B ]   

วันนี้2   [ ◀ ช่วงเก่ากว่า ] [ ช่วงที่ 317 ] [ ช่วงใหม่กว่า ▶ ] [ ล่าสุด ]    [ 3 ชั่วโมง ] [ 6 ชั่วโมง ] [ 12 ชั่วโมง ] [ 24 ชั่วโมง ]   วันนี้2

อุณภูมิตู้ Knockdown4529  ราย 3 ชั่วโมง  ที่วัดได้ ในช่วงวันเวลา 31/03/2026 (03:52) ถึง 31/03/2026 (06:52) 
ความชื้นในตู้ Knockdown4529  ราย 3 ชั่วโมง  ที่วัดได้ ในช่วงวันเวลา 31/03/2026 (03:52) ถึง 31/03/2026 (06:52) 

 
DS18B20SHTC3 
IDDate d/m/Y & Timedata1
สูง
data2
ต่ำ
data3
นอก
temp
pcb
hum
pcb
Time
 7427  31/03/2026 06:48:24  27.9  27.9  26.5  27.6  72.9  06:48 
 7426  31/03/2026 06:43:42  27.9  27.9  26.5  27.7  72.9  06:43 
 7425  31/03/2026 06:39:01  27.9  27.9  26.3  27.8  72.9  06:39 
 7424  31/03/2026 06:34:18  27.9  27.9  26.2  27.7  72.9  06:34 
 7423  31/03/2026 06:29:36  27.9  27.9  26.3  27.8  73.1  06:29 
 7422  31/03/2026 06:24:54  27.9  27.9  26.4  27.8  73.0  06:24 
 7421  31/03/2026 06:20:12  28.0  27.9  26.2  27.9  73.0  06:20 
 7420  31/03/2026 06:15:30  28.0  27.9  26.1  27.9  73.0  06:15 
 7419  31/03/2026 06:10:49  28.0  28.0  26.0  27.7  73.0  06:10 
 7418  31/03/2026 06:06:08  28.0  28.0  26.2  27.9  73.0  06:06 
 7417  31/03/2026 06:01:23  28.1  28.0  26.2  27.9  73.0  06:01 
 7416  31/03/2026 05:56:41  28.1  28.0  26.2  27.8  72.9  05:56 
 7415  31/03/2026 05:51:59  28.1  28.1  26.3  28.0  73.0  05:51 
 7414  31/03/2026 05:47:17  28.1  28.1  26.2  27.9  73.0  05:47 
 7413  31/03/2026 05:42:35  28.1  28.1  26.2  27.9  72.9  05:42 
 7412  31/03/2026 05:37:54  28.1  28.1  26.1  28.0  73.0  05:37 
 7411  31/03/2026 05:33:13  28.1  28.1  26.3  28.0  72.9  05:33 
 7410  31/03/2026 05:28:30  28.1  28.1  26.4  28.1  73.0  05:28 
 7409  31/03/2026 05:23:48  28.2  28.1  26.4  28.0  73.0  05:23 
 7408  31/03/2026 05:19:06  28.2  28.2  26.2  28.1  73.0  05:19 
 7407  31/03/2026 05:14:24  28.2  28.2  26.3  28.0  72.9  05:14 
 7406  31/03/2026 05:09:42  28.2  28.2  26.4  28.0  72.9  05:09 
 7405  31/03/2026 05:05:01  28.2  28.2  26.4  28.1  73.0  05:05 
 7404  31/03/2026 05:00:17  28.2  28.2  26.5  28.1  72.9  05:00 

Data every 5 minute.


ใช้เวลาประมวลผล 0.00172 วินาที